Zurück zum Katalog

FLOCK 4Q 2

AktivWissenschaftSSO
NORAD 58320·PAYLOAD·🇺🇸 United States

Gestartet Nov 11, 2023 von Vandenberg Space Force Base

Loading…

Nächste Überflüge (nächste 24 Stunden)

TLE

AktuellSource: CelesTrak SupGP

Epoche: Sep 14, 2026, 20:44 UTC

1 58320C 23174BS  26257.86437500  .00018606  00000+0  29335-3 0  2572
2 58320  97.3817 348.6856 0005932 159.2807 310.5461 15.53533079    18

Verfolge FLOCK 4Q 2 in Echtzeit mit AllMySat

Download on the App Store